{"data":{"norad_id":59572,"intl_designator":"2024-076J","name":"STARLINK-31666","alt_names":[],"object_type":"PAYLOAD","status":"ACTIVE","operator":null,"country":"US","launch_date":"2024-04-23","launch_site_code":"AFETR","launch_vehicle":null,"mission":null,"orbit_class":"UNKNOWN","rcs_meters":null,"size_class":null,"mass_kg":null,"dimensions":null,"purposes":["comms"],"wikipedia_slug":null,"has_3d_model":false,"image_url":null,"decayed_at":null,"tle_current":{"epoch":"2026-09-21T06:21:28.822752Z","epoch_age_seconds":102197,"freshness":"FRESH","line1":"1 59572U 24076J   26264.26491693  .00000476  00000+0  26814-4 0  9998","line2":"2 59572  43.0033 337.5241 0001691 275.6464  84.4195 15.27575568136494","mean_motion":15.27575568,"eccentricity":0.0001691,"inclination_deg":43.0033,"raan_deg":337.5241,"arg_perigee_deg":275.6464,"mean_anomaly_deg":84.4195,"bstar":2.6814e-5,"rev_number":13649,"period_min":94.267022212547,"perigee_km":481.90213826117,"apogee_km":484.22259588711,"semimajor_km":6861.1993670741,"source":"CELESTRAK","updated_at":"2026-09-22T09:00:49.002105Z"}}}